Year,Month,Day,Hour,Minute,Value (Times are PST for temperature in C)
2014,09,20,00,00,11.80
2014,09,20,00,01,11.80
2014,09,20,00,02,11.90
2014,09,20,00,03,11.90
2014,09,20,00,04,12.00
2014,09,20,00,05,12.00
2014,09,20,00,06,12.10
2014,09,20,00,07,12.00
2014,09,20,00,08,12.00
2014,09,20,00,09,11.90
2014,09,20,00,10,11.90
2014,09,20,00,11,11.90
2014,09,20,00,12,11.90
2014,09,20,00,13,11.90
2014,09,20,00,14,12.00
2014,09,20,00,15,12.00
2014,09,20,00,16,12.00
2014,09,20,00,17,12.10
2014,09,20,00,18,12.10
2014,09,20,00,19,12.10
2014,09,20,00,20,12.10
2014,09,20,00,21,12.10
2014,09,20,00,22,12.10
2014,09,20,00,23,12.10
2014,09,20,00,24,12.10
2014,09,20,00,25,12.10
2014,09,20,00,26,12.20
2014,09,20,00,27,12.30
2014,09,20,00,28,12.30
2014,09,20,00,29,12.30
2014,09,20,00,30,12.30
2014,09,20,00,31,12.30
2014,09,20,00,32,12.40
2014,09,20,00,33,12.40
2014,09,20,00,34,12.50
2014,09,20,00,35,12.60
2014,09,20,00,36,12.70
2014,09,20,00,37,12.70
2014,09,20,00,38,12.80
2014,09,20,00,39,12.80
2014,09,20,00,40,12.90
2014,09,20,00,41,13.00
2014,09,20,00,42,13.10
2014,09,20,00,43,13.10
2014,09,20,00,44,13.10
2014,09,20,00,45,13.20
2014,09,20,00,46,13.20
2014,09,20,00,47,13.20
2014,09,20,00,48,13.20
2014,09,20,00,49,13.30
2014,09,20,00,50,13.30
2014,09,20,00,51,13.30
2014,09,20,00,52,13.30
2014,09,20,00,53,13.40
2014,09,20,00,54,13.40
2014,09,20,00,55,13.40
2014,09,20,00,56,13.40
2014,09,20,00,57,13.40
2014,09,20,00,58,13.30
2014,09,20,00,59,13.20
2014,09,20,01,00,13.20
2014,09,20,01,01,13.10
2014,09,20,01,02,13.10
2014,09,20,01,03,13.00
2014,09,20,01,04,12.90
2014,09,20,01,05,12.90
2014,09,20,01,06,12.80
2014,09,20,01,07,12.60
2014,09,20,01,08,12.60
2014,09,20,01,09,12.50
2014,09,20,01,10,12.40
2014,09,20,01,11,12.40
2014,09,20,01,12,12.30
2014,09,20,01,13,12.30
2014,09,20,01,14,12.30
2014,09,20,01,15,12.20
2014,09,20,01,16,12.20
2014,09,20,01,17,12.20
2014,09,20,01,18,12.10
2014,09,20,01,19,12.10
2014,09,20,01,20,12.00
2014,09,20,01,21,12.00
2014,09,20,01,22,11.90
2014,09,20,01,23,11.80
2014,09,20,01,24,11.80
2014,09,20,01,25,11.70
2014,09,20,01,26,11.70
2014,09,20,01,27,11.60
2014,09,20,01,28,11.60
2014,09,20,01,29,11.50
2014,09,20,01,30,11.40
2014,09,20,01,31,11.40
2014,09,20,01,32,11.30
2014,09,20,01,33,11.30
2014,09,20,01,34,11.30
2014,09,20,01,35,11.20
2014,09,20,01,36,11.20
2014,09,20,01,37,11.10
2014,09,20,01,38,11.10
2014,09,20,01,39,11.00
2014,09,20,01,40,10.90
2014,09,20,01,41,10.90
2014,09,20,01,42,10.80
2014,09,20,01,43,10.80
2014,09,20,01,44,10.80
2014,09,20,01,45,10.70
2014,09,20,01,46,10.70
2014,09,20,01,47,10.60
2014,09,20,01,48,10.60
2014,09,20,01,49,10.50
2014,09,20,01,50,10.50
2014,09,20,01,51,10.40
2014,09,20,01,52,10.40
2014,09,20,01,53,10.40
2014,09,20,01,54,10.30
2014,09,20,01,55,10.30
2014,09,20,01,56,10.30
2014,09,20,01,57,10.30
2014,09,20,01,58,10.30
2014,09,20,01,59,10.30
2014,09,20,02,00,10.20
2014,09,20,02,01,10.20
2014,09,20,02,02,10.20
2014,09,20,02,03,10.20
2014,09,20,02,04,10.20
2014,09,20,02,05,10.20
2014,09,20,02,06,10.20
2014,09,20,02,07,10.20
2014,09,20,02,08,10.20
2014,09,20,02,09,10.20
2014,09,20,02,10,10.10
2014,09,20,02,11,10.10
2014,09,20,02,12,10.10
2014,09,20,02,13,10.10
2014,09,20,02,14,10.10
2014,09,20,02,15,10.10
2014,09,20,02,16,10.00
2014,09,20,02,17,10.00
2014,09,20,02,18,10.00
2014,09,20,02,19,9.90
2014,09,20,02,20,9.90
2014,09,20,02,21,9.90
2014,09,20,02,22,9.90
2014,09,20,02,23,9.80
2014,09,20,02,24,9.80
2014,09,20,02,25,9.80
2014,09,20,02,26,9.80
2014,09,20,02,27,9.80
2014,09,20,02,28,9.80
2014,09,20,02,29,9.70
2014,09,20,02,30,9.70
2014,09,20,02,31,9.70
2014,09,20,02,32,9.70
2014,09,20,02,33,9.70
2014,09,20,02,34,9.70
2014,09,20,02,35,9.60
2014,09,20,02,36,9.60
2014,09,20,02,37,9.60
2014,09,20,02,38,9.60
2014,09,20,02,39,9.60
2014,09,20,02,40,9.60
2014,09,20,02,41,9.50
2014,09,20,02,42,9.50
2014,09,20,02,43,9.50
2014,09,20,02,44,9.50
2014,09,20,02,45,9.50
2014,09,20,02,46,9.50
2014,09,20,02,47,9.40
2014,09,20,02,48,9.40
2014,09,20,02,49,9.40
2014,09,20,02,50,9.40
2014,09,20,02,51,9.40
2014,09,20,02,52,9.40
2014,09,20,02,53,9.40
2014,09,20,02,54,9.40
2014,09,20,02,55,9.40
2014,09,20,02,56,9.40
2014,09,20,02,57,9.40
2014,09,20,02,58,9.40
2014,09,20,02,59,9.40
2014,09,20,03,00,9.40
2014,09,20,03,01,9.40
2014,09,20,03,02,9.40
2014,09,20,03,03,9.50
2014,09,20,03,04,9.50
2014,09,20,03,05,9.40
2014,09,20,03,06,9.40
2014,09,20,03,07,9.40
2014,09,20,03,08,9.40
2014,09,20,03,09,9.40
2014,09,20,03,10,9.40
2014,09,20,03,11,9.40
2014,09,20,03,12,9.40
2014,09,20,03,13,9.40
2014,09,20,03,14,9.40
2014,09,20,03,15,9.40
2014,09,20,03,16,9.40
2014,09,20,03,17,9.40
2014,09,20,03,18,9.40
2014,09,20,03,19,9.30
2014,09,20,03,20,9.30
2014,09,20,03,21,9.30
2014,09,20,03,22,9.30
2014,09,20,03,23,9.30
2014,09,20,03,24,9.30
2014,09,20,03,25,9.30
2014,09,20,03,26,9.30
2014,09,20,03,27,9.30
2014,09,20,03,28,9.30
2014,09,20,03,29,9.30
2014,09,20,03,30,9.30
2014,09,20,03,31,9.30
2014,09,20,03,32,9.30
2014,09,20,03,33,9.30
2014,09,20,03,34,9.30
2014,09,20,03,35,9.30
2014,09,20,03,36,9.30
2014,09,20,03,37,9.30
2014,09,20,03,38,9.30
2014,09,20,03,39,9.30
2014,09,20,03,40,9.40
2014,09,20,03,41,9.40
2014,09,20,03,42,9.40
2014,09,20,03,43,9.40
2014,09,20,03,44,9.40
2014,09,20,03,45,9.40
2014,09,20,03,46,9.40
2014,09,20,03,47,9.50
2014,09,20,03,48,9.50
2014,09,20,03,49,9.60
2014,09,20,03,50,9.70
2014,09,20,03,51,9.80
2014,09,20,03,52,9.90
2014,09,20,03,53,9.90
2014,09,20,03,54,9.90
2014,09,20,03,55,9.90
2014,09,20,03,56,9.90
2014,09,20,03,57,9.90
2014,09,20,03,58,9.90
2014,09,20,03,59,9.90
2014,09,20,04,00,9.90
2014,09,20,04,01,9.90
2014,09,20,04,02,9.90
2014,09,20,04,03,9.90
2014,09,20,04,04,9.90
2014,09,20,04,05,9.80
2014,09,20,04,06,9.80
2014,09,20,04,07,9.80
2014,09,20,04,08,9.80
2014,09,20,04,09,9.80
2014,09,20,04,10,9.80
2014,09,20,04,11,9.80
2014,09,20,04,12,9.80
2014,09,20,04,13,9.80
2014,09,20,04,14,9.80
2014,09,20,04,15,9.80
2014,09,20,04,16,9.80
2014,09,20,04,17,9.80
2014,09,20,04,18,9.80
2014,09,20,04,19,9.80
2014,09,20,04,20,9.80
2014,09,20,04,21,9.80
2014,09,20,04,22,9.80
2014,09,20,04,23,9.80
2014,09,20,04,24,9.90
2014,09,20,04,25,9.90
2014,09,20,04,26,9.90
2014,09,20,04,27,10.00
2014,09,20,04,28,10.00
2014,09,20,04,29,10.10
2014,09,20,04,30,10.10
2014,09,20,04,31,10.10
2014,09,20,04,32,10.10
2014,09,20,04,33,10.10
2014,09,20,04,34,10.10
2014,09,20,04,35,10.10
2014,09,20,04,36,10.00
2014,09,20,04,37,10.00
2014,09,20,04,38,10.00
2014,09,20,04,39,10.00
2014,09,20,04,40,9.90
2014,09,20,04,41,9.90
2014,09,20,04,42,9.90
2014,09,20,04,43,9.90
2014,09,20,04,44,9.90
2014,09,20,04,45,9.90
2014,09,20,04,46,9.90
2014,09,20,04,47,9.90
2014,09,20,04,48,9.90
2014,09,20,04,49,9.90
2014,09,20,04,50,9.90
2014,09,20,04,51,9.90
2014,09,20,04,52,9.90
2014,09,20,04,53,9.90
2014,09,20,04,54,9.90
2014,09,20,04,55,9.90
2014,09,20,04,56,9.90
2014,09,20,04,57,9.90
2014,09,20,04,58,9.90
2014,09,20,04,59,9.90
2014,09,20,05,00,9.90
2014,09,20,05,01,9.90
2014,09,20,05,02,9.90
2014,09,20,05,03,9.90
2014,09,20,05,04,9.90
2014,09,20,05,05,9.90
2014,09,20,05,06,9.90
2014,09,20,05,07,9.90
2014,09,20,05,08,9.90
2014,09,20,05,09,9.90
2014,09,20,05,10,9.80
2014,09,20,05,11,9.80
2014,09,20,05,12,9.80
2014,09,20,05,13,9.80
2014,09,20,05,14,9.80
2014,09,20,05,15,9.80
2014,09,20,05,16,9.80
2014,09,20,05,17,9.80
2014,09,20,05,18,9.70
2014,09,20,05,19,9.70
2014,09,20,05,20,9.70
2014,09,20,05,21,9.70
2014,09,20,05,22,9.70
2014,09,20,05,23,9.70
2014,09,20,05,24,9.70
2014,09,20,05,25,9.70
2014,09,20,05,26,9.70
2014,09,20,05,27,9.70
2014,09,20,05,28,9.70
2014,09,20,05,29,9.70
2014,09,20,05,30,9.70
2014,09,20,05,31,9.70
2014,09,20,05,32,9.70
2014,09,20,05,33,9.80
2014,09,20,05,34,9.80
2014,09,20,05,35,9.80
2014,09,20,05,36,9.80
2014,09,20,05,37,9.80
2014,09,20,05,38,9.80
2014,09,20,05,39,9.80
2014,09,20,05,40,9.80
2014,09,20,05,41,9.80
2014,09,20,05,42,9.80
2014,09,20,05,43,9.80
2014,09,20,05,44,9.80
2014,09,20,05,45,9.80
2014,09,20,05,46,9.80
2014,09,20,05,47,9.80
2014,09,20,05,48,9.80
2014,09,20,05,49,9.80
2014,09,20,05,50,9.80
2014,09,20,05,51,9.80
2014,09,20,05,52,9.90
2014,09,20,05,53,9.90
2014,09,20,05,54,9.90
2014,09,20,05,55,9.90
2014,09,20,05,56,9.80
2014,09,20,05,57,9.80
2014,09,20,05,58,9.80
2014,09,20,05,59,9.90
2014,09,20,06,00,9.90
2014,09,20,06,01,9.90
2014,09,20,06,02,9.90
2014,09,20,06,03,10.00
2014,09,20,06,04,10.10
2014,09,20,06,05,10.10
2014,09,20,06,06,10.10
2014,09,20,06,07,10.10
2014,09,20,06,08,10.10
2014,09,20,06,09,10.10
2014,09,20,06,10,10.10
2014,09,20,06,11,10.10
2014,09,20,06,12,10.00
2014,09,20,06,13,10.00
2014,09,20,06,14,9.90
2014,09,20,06,15,9.90
2014,09,20,06,16,9.90
2014,09,20,06,17,9.90
2014,09,20,06,18,9.90
2014,09,20,06,19,9.90
2014,09,20,06,20,9.90
2014,09,20,06,21,9.90
2014,09,20,06,22,10.00
2014,09,20,06,23,10.00
2014,09,20,06,24,10.10
2014,09,20,06,25,10.10
2014,09,20,06,26,10.10
2014,09,20,06,27,10.20
2014,09,20,06,28,10.20
2014,09,20,06,29,10.20
2014,09,20,06,30,10.20
2014,09,20,06,31,10.30
2014,09,20,06,32,10.30
2014,09,20,06,33,10.30
2014,09,20,06,34,10.40
2014,09,20,06,35,10.40
2014,09,20,06,36,10.40
2014,09,20,06,37,10.50
2014,09,20,06,38,10.50
2014,09,20,06,39,10.50
2014,09,20,06,40,10.60
2014,09,20,06,41,10.60
2014,09,20,06,42,10.60
2014,09,20,06,43,10.60
2014,09,20,06,44,10.60
2014,09,20,06,45,10.70
2014,09,20,06,46,10.70
2014,09,20,06,47,10.70
2014,09,20,06,48,10.80
2014,09,20,06,49,10.80
2014,09,20,06,50,10.80
2014,09,20,06,51,10.90
2014,09,20,06,52,10.90
2014,09,20,06,53,10.90
2014,09,20,06,54,10.90
2014,09,20,06,55,10.90
2014,09,20,06,56,10.90
2014,09,20,06,57,10.90
2014,09,20,06,58,10.90
2014,09,20,06,59,10.90
2014,09,20,07,00,10.90
2014,09,20,07,01,10.90
2014,09,20,07,02,10.90
2014,09,20,07,03,11.00
2014,09,20,07,04,11.00
2014,09,20,07,05,11.10
2014,09,20,07,06,11.10
2014,09,20,07,07,11.10
2014,09,20,07,08,11.20
2014,09,20,07,09,11.20
2014,09,20,07,10,11.30
2014,09,20,07,11,11.30
2014,09,20,07,12,11.40
2014,09,20,07,13,11.40
2014,09,20,07,14,11.40
2014,09,20,07,15,11.40
2014,09,20,07,16,11.40
2014,09,20,07,17,11.30
2014,09,20,07,18,11.20
2014,09,20,07,19,11.20
2014,09,20,07,20,11.20
2014,09,20,07,21,11.20
2014,09,20,07,22,11.20
2014,09,20,07,23,11.20
2014,09,20,07,24,11.20
2014,09,20,07,25,11.20
2014,09,20,07,26,11.20
2014,09,20,07,27,11.20
2014,09,20,07,28,11.20
2014,09,20,07,29,11.10
2014,09,20,07,30,11.10
2014,09,20,07,31,11.10
2014,09,20,07,32,11.20
2014,09,20,07,33,11.20
2014,09,20,07,34,11.30
2014,09,20,07,35,11.30
2014,09,20,07,36,11.40
2014,09,20,07,37,11.50
2014,09,20,07,38,11.50
2014,09,20,07,39,11.60
2014,09,20,07,40,11.70
2014,09,20,07,41,11.70
2014,09,20,07,42,11.80
2014,09,20,07,43,11.80
2014,09,20,07,44,11.90
2014,09,20,07,45,11.90
2014,09,20,07,46,12.00
2014,09,20,07,47,12.00
2014,09,20,07,48,12.10
2014,09,20,07,49,12.10
2014,09,20,07,50,12.20
2014,09,20,07,51,12.20
2014,09,20,07,52,12.30
2014,09,20,07,53,12.30
2014,09,20,07,54,12.30
2014,09,20,07,55,12.30
2014,09,20,07,56,12.30
2014,09,20,07,57,12.40
2014,09,20,07,58,12.40
2014,09,20,07,59,12.30
2014,09,20,08,00,12.30
2014,09,20,08,01,12.30
2014,09,20,08,02,12.30
2014,09,20,08,03,12.30
2014,09,20,08,04,12.30
2014,09,20,08,05,12.40
2014,09,20,08,06,12.40
2014,09,20,08,07,12.40
2014,09,20,08,08,12.50
2014,09,20,08,09,12.50
2014,09,20,08,10,12.60
2014,09,20,08,11,12.60
2014,09,20,08,12,12.70
2014,09,20,08,13,12.70
2014,09,20,08,14,12.70
2014,09,20,08,15,12.80
2014,09,20,08,16,12.80
2014,09,20,08,17,12.80
2014,09,20,08,18,12.80
2014,09,20,08,19,12.80
2014,09,20,08,20,12.90
2014,09,20,08,21,13.00
2014,09,20,08,22,13.00
2014,09,20,08,23,13.10
2014,09,20,08,24,13.10
2014,09,20,08,25,13.20
2014,09,20,08,26,13.20
2014,09,20,08,27,13.20
2014,09,20,08,28,13.30
2014,09,20,08,29,13.30
2014,09,20,08,30,13.30
2014,09,20,08,31,13.40
2014,09,20,08,32,13.40
2014,09,20,08,33,13.40
2014,09,20,08,34,13.40
2014,09,20,08,35,13.50
2014,09,20,08,36,13.50
2014,09,20,08,37,13.60
2014,09,20,08,38,13.60
2014,09,20,08,39,13.60
2014,09,20,08,40,13.70
2014,09,20,08,41,13.70
2014,09,20,08,42,13.70
2014,09,20,08,43,13.70
2014,09,20,08,44,13.80
2014,09,20,08,45,13.80
2014,09,20,08,46,13.80
2014,09,20,08,47,13.80
2014,09,20,08,48,13.90
2014,09,20,08,49,13.90
2014,09,20,08,50,13.90
2014,09,20,08,51,13.90
2014,09,20,08,52,14.00
2014,09,20,08,53,14.00
2014,09,20,08,54,14.00
2014,09,20,08,55,14.10
2014,09,20,08,56,14.10
2014,09,20,08,57,14.10
2014,09,20,08,58,14.20
2014,09,20,08,59,14.20
2014,09,20,09,00,14.20
2014,09,20,09,01,14.20
2014,09,20,09,02,14.30
2014,09,20,09,03,14.30
2014,09,20,09,04,14.30
2014,09,20,09,05,14.30
2014,09,20,09,06,14.40
2014,09,20,09,07,14.40
2014,09,20,09,08,14.40
2014,09,20,09,09,14.50
2014,09,20,09,10,14.50
2014,09,20,09,11,14.60
2014,09,20,09,12,14.60
2014,09,20,09,13,14.70
2014,09,20,09,14,14.80
2014,09,20,09,15,14.80
2014,09,20,09,16,14.90
2014,09,20,09,17,15.00
2014,09,20,09,18,15.00
2014,09,20,09,19,15.10
2014,09,20,09,20,15.10
2014,09,20,09,21,15.20
2014,09,20,09,22,15.20
2014,09,20,09,23,15.20
2014,09,20,09,24,15.20
2014,09,20,09,25,15.20
2014,09,20,09,26,15.30
2014,09,20,09,27,15.30
2014,09,20,09,28,15.40
2014,09,20,09,29,15.40
2014,09,20,09,30,15.40
2014,09,20,09,31,15.50
2014,09,20,09,32,15.50
2014,09,20,09,33,15.70
2014,09,20,09,34,15.70
2014,09,20,09,35,15.80
2014,09,20,09,36,15.90
2014,09,20,09,37,16.00
2014,09,20,09,38,16.10
2014,09,20,09,39,16.20
2014,09,20,09,40,16.20
2014,09,20,09,41,16.30
2014,09,20,09,42,16.30
2014,09,20,09,43,16.40
2014,09,20,09,44,16.40
2014,09,20,09,45,16.50
2014,09,20,09,46,16.60
2014,09,20,09,47,16.60
2014,09,20,09,48,16.60
2014,09,20,09,49,16.60
2014,09,20,09,50,16.70
2014,09,20,09,51,16.80
2014,09,20,09,52,16.90
2014,09,20,09,53,17.00
2014,09,20,09,54,17.00
2014,09,20,09,55,17.10
2014,09,20,09,56,17.20
2014,09,20,09,57,17.30
2014,09,20,09,58,17.40
2014,09,20,09,59,17.50
2014,09,20,10,00,17.60
2014,09,20,10,01,17.70
2014,09,20,10,02,17.90
2014,09,20,10,03,18.00
2014,09,20,10,04,18.10
2014,09,20,10,05,18.20
2014,09,20,10,06,18.30
2014,09,20,10,07,18.40
2014,09,20,10,08,18.60
2014,09,20,10,09,18.60
2014,09,20,10,10,18.80
2014,09,20,10,11,18.80
2014,09,20,10,12,18.90
2014,09,20,10,13,19.00
2014,09,20,10,14,19.00
2014,09,20,10,15,19.10
2014,09,20,10,16,19.20
2014,09,20,10,17,19.30
2014,09,20,10,18,19.40
2014,09,20,10,19,19.40
2014,09,20,10,20,19.50
2014,09,20,10,21,19.50
2014,09,20,10,22,19.60
2014,09,20,10,23,19.60
2014,09,20,10,24,19.60
2014,09,20,10,25,19.70
2014,09,20,10,26,19.70
2014,09,20,10,27,19.80
2014,09,20,10,28,19.80
2014,09,20,10,29,19.80
2014,09,20,10,30,19.80
2014,09,20,10,31,19.80
2014,09,20,10,32,19.80
2014,09,20,10,33,19.80
2014,09,20,10,34,19.90
2014,09,20,10,35,20.00
2014,09,20,10,36,20.10
2014,09,20,10,37,20.20
2014,09,20,10,38,20.20
2014,09,20,10,39,20.30
2014,09,20,10,40,20.40
2014,09,20,10,41,20.40
2014,09,20,10,42,20.50
2014,09,20,10,43,20.50
2014,09,20,10,44,20.60
2014,09,20,10,45,20.70
2014,09,20,10,46,20.80
2014,09,20,10,47,20.90
2014,09,20,10,48,20.90
2014,09,20,10,49,20.90
2014,09,20,10,50,20.90
2014,09,20,10,51,20.90
2014,09,20,10,52,20.80
2014,09,20,10,53,20.80
2014,09,20,10,54,20.80
2014,09,20,10,55,20.80
2014,09,20,10,56,20.80
2014,09,20,10,57,20.80
2014,09,20,10,58,20.80
2014,09,20,10,59,20.80
2014,09,20,11,00,20.80
2014,09,20,11,01,20.80
2014,09,20,11,02,20.80
2014,09,20,11,03,20.80
2014,09,20,11,04,20.80
2014,09,20,11,05,20.80
2014,09,20,11,06,20.80
2014,09,20,11,07,20.90
2014,09,20,11,08,20.90
2014,09,20,11,09,20.90
2014,09,20,11,10,20.90
2014,09,20,11,11,20.90
2014,09,20,11,12,20.90
2014,09,20,11,13,20.90
2014,09,20,11,14,20.90
2014,09,20,11,15,21.00
2014,09,20,11,16,21.00
2014,09,20,11,17,21.10
2014,09,20,11,18,21.10
2014,09,20,11,19,21.10
2014,09,20,11,20,20.90
2014,09,20,11,21,20.90
2014,09,20,11,22,20.80
2014,09,20,11,23,20.70
2014,09,20,11,24,20.70
2014,09,20,11,25,20.60
2014,09,20,11,26,20.60
2014,09,20,11,27,20.50
2014,09,20,11,28,20.40
2014,09,20,11,29,20.40
2014,09,20,11,30,20.40
2014,09,20,11,31,20.50
2014,09,20,11,32,20.50
2014,09,20,11,33,20.50
2014,09,20,11,34,20.50
2014,09,20,11,35,20.60
2014,09,20,11,36,20.60
2014,09,20,11,37,20.60
2014,09,20,11,38,20.50
2014,09,20,11,39,20.50
2014,09,20,11,40,20.50
2014,09,20,11,41,20.50
2014,09,20,11,42,20.50
2014,09,20,11,43,20.50
2014,09,20,11,44,20.50
2014,09,20,11,45,20.50
2014,09,20,11,46,20.60
2014,09,20,11,47,20.70
2014,09,20,11,48,20.80
2014,09,20,11,49,20.80
2014,09,20,11,50,20.90
2014,09,20,11,51,21.00
2014,09,20,11,52,21.10
2014,09,20,11,53,21.10
2014,09,20,11,54,21.20
2014,09,20,11,55,21.20
2014,09,20,11,56,21.20
2014,09,20,11,57,21.20
2014,09,20,11,58,21.20
2014,09,20,11,59,21.20
2014,09,20,12,00,21.20
2014,09,20,12,01,21.20
2014,09,20,12,02,21.30
2014,09,20,12,03,21.20
2014,09,20,12,04,21.20
2014,09,20,12,05,21.20
2014,09,20,12,06,21.20
2014,09,20,12,07,21.30
2014,09,20,12,08,21.30
2014,09,20,12,09,21.30
2014,09,20,12,10,21.40
2014,09,20,12,11,21.40
2014,09,20,12,12,21.50
2014,09,20,12,13,21.50
2014,09,20,12,14,21.60
2014,09,20,12,15,21.60
2014,09,20,12,16,21.60
2014,09,20,12,17,21.60
2014,09,20,12,18,21.60
2014,09,20,12,19,21.60
2014,09,20,12,20,21.60
2014,09,20,12,21,21.60
2014,09,20,12,22,21.70
2014,09,20,12,23,21.70
2014,09,20,12,24,21.70
2014,09,20,12,25,21.70
2014,09,20,12,26,21.70
2014,09,20,12,27,21.60
2014,09,20,12,28,21.60
2014,09,20,12,29,21.60
2014,09,20,12,30,21.60
2014,09,20,12,31,21.60
2014,09,20,12,32,21.60
2014,09,20,12,33,21.60
2014,09,20,12,34,21.70
2014,09,20,12,35,21.70
2014,09,20,12,36,21.80
2014,09,20,12,37,21.90
2014,09,20,12,38,22.00
2014,09,20,12,39,22.10
2014,09,20,12,40,22.20
2014,09,20,12,41,22.20
2014,09,20,12,42,22.20
2014,09,20,12,43,22.30
2014,09,20,12,44,22.20
2014,09,20,12,45,22.10
2014,09,20,12,46,22.10
2014,09,20,12,47,22.00
2014,09,20,12,48,22.00
2014,09,20,12,49,22.00
2014,09,20,12,50,22.10
2014,09,20,12,51,22.00
2014,09,20,12,52,22.00
2014,09,20,12,53,22.00
2014,09,20,12,54,22.10
2014,09,20,12,55,22.20
2014,09,20,12,56,22.20
2014,09,20,12,57,22.30
2014,09,20,12,58,22.30
2014,09,20,12,59,22.30
2014,09,20,13,00,22.30
2014,09,20,13,01,22.30
2014,09,20,13,02,22.30
2014,09,20,13,03,22.30
2014,09,20,13,04,22.30
2014,09,20,13,05,22.30
2014,09,20,13,06,22.40
2014,09,20,13,07,22.40
2014,09,20,13,08,22.30
2014,09,20,13,09,22.40
2014,09,20,13,10,22.40
2014,09,20,13,11,22.50
2014,09,20,13,12,22.60
2014,09,20,13,13,22.60
2014,09,20,13,14,22.60
2014,09,20,13,15,22.60
2014,09,20,13,16,22.60
2014,09,20,13,17,22.60
2014,09,20,13,18,22.70
2014,09,20,13,19,22.70
2014,09,20,13,20,22.80
2014,09,20,13,21,22.90
2014,09,20,13,22,23.00
2014,09,20,13,23,23.00
2014,09,20,13,24,23.10
2014,09,20,13,25,23.10
2014,09,20,13,26,23.10
2014,09,20,13,27,23.10
2014,09,20,13,28,23.20
2014,09,20,13,29,23.30
2014,09,20,13,30,23.30
2014,09,20,13,31,23.30
2014,09,20,13,32,23.20
2014,09,20,13,33,23.20
2014,09,20,13,34,23.30
2014,09,20,13,35,23.30
2014,09,20,13,36,23.30
2014,09,20,13,37,23.30
2014,09,20,13,38,23.40
2014,09,20,13,39,23.50
2014,09,20,13,40,23.60
2014,09,20,13,41,23.70
2014,09,20,13,42,23.70
2014,09,20,13,43,23.70
2014,09,20,13,44,23.70
2014,09,20,13,45,23.70
2014,09,20,13,46,23.70
2014,09,20,13,47,23.80
2014,09,20,13,48,23.90
2014,09,20,13,49,23.90
2014,09,20,13,50,23.80
2014,09,20,13,51,23.90
2014,09,20,13,52,23.90
2014,09,20,13,53,23.90
2014,09,20,13,54,23.90
2014,09,20,13,55,23.80
2014,09,20,13,56,23.80
2014,09,20,13,57,23.80
2014,09,20,13,58,23.80
2014,09,20,13,59,23.80
2014,09,20,14,00,23.80
2014,09,20,14,01,23.80
2014,09,20,14,02,23.90
2014,09,20,14,03,23.90
2014,09,20,14,04,24.00
2014,09,20,14,05,24.10
2014,09,20,14,06,24.10
2014,09,20,14,07,24.20
2014,09,20,14,08,24.20
2014,09,20,14,09,24.20
2014,09,20,14,10,24.30
2014,09,20,14,11,24.20
2014,09,20,14,12,24.20
2014,09,20,14,13,24.20
2014,09,20,14,14,24.20
2014,09,20,14,15,24.20
2014,09,20,14,16,24.20
2014,09,20,14,17,24.20
2014,09,20,14,18,24.20
2014,09,20,14,19,24.20
2014,09,20,14,20,24.20
2014,09,20,14,21,24.30
2014,09,20,14,22,24.30
2014,09,20,14,23,24.30
2014,09,20,14,24,24.30
2014,09,20,14,25,24.20
2014,09,20,14,26,24.20
2014,09,20,14,27,24.20
2014,09,20,14,28,24.20
2014,09,20,14,29,24.20
2014,09,20,14,30,24.20
2014,09,20,14,31,24.20
2014,09,20,14,32,24.20
2014,09,20,14,33,24.20
2014,09,20,14,34,24.20
2014,09,20,14,35,24.20
2014,09,20,14,36,24.20
2014,09,20,14,37,24.20
2014,09,20,14,38,24.20
2014,09,20,14,39,24.20
2014,09,20,14,40,24.20
2014,09,20,14,41,24.20
2014,09,20,14,42,24.20
2014,09,20,14,43,24.20
2014,09,20,14,44,24.20
2014,09,20,14,45,24.20
2014,09,20,14,46,24.20
2014,09,20,14,47,24.20
2014,09,20,14,48,24.20
2014,09,20,14,49,24.30
2014,09,20,14,50,24.20
2014,09,20,14,51,24.30
2014,09,20,14,52,24.30
2014,09,20,14,53,24.30
2014,09,20,14,54,24.30
2014,09,20,14,55,24.40
2014,09,20,14,56,24.50
2014,09,20,14,57,24.50
2014,09,20,14,58,24.50
2014,09,20,14,59,24.50
2014,09,20,15,00,24.40
2014,09,20,15,01,24.40
2014,09,20,15,02,24.30
2014,09,20,15,03,24.30
2014,09,20,15,04,24.20
2014,09,20,15,05,24.20
2014,09,20,15,06,24.20
2014,09,20,15,07,24.30
2014,09,20,15,08,24.30
2014,09,20,15,09,24.40
2014,09,20,15,10,24.50
2014,09,20,15,11,24.50
2014,09,20,15,12,24.50
2014,09,20,15,13,24.40
2014,09,20,15,14,24.40
2014,09,20,15,15,24.50
2014,09,20,15,16,24.50
2014,09,20,15,17,24.60
2014,09,20,15,18,24.60
2014,09,20,15,19,24.60
2014,09,20,15,20,24.50
2014,09,20,15,21,24.40
2014,09,20,15,22,24.40
2014,09,20,15,23,24.30
2014,09,20,15,24,24.30
2014,09,20,15,25,24.40
2014,09,20,15,26,24.30
2014,09,20,15,27,24.30
2014,09,20,15,28,24.20
2014,09,20,15,29,24.20
2014,09,20,15,30,24.20
2014,09,20,15,31,24.20
2014,09,20,15,32,24.20
2014,09,20,15,33,24.20
2014,09,20,15,34,24.20
2014,09,20,15,35,24.20
2014,09,20,15,36,24.30
2014,09,20,15,37,24.30
2014,09,20,15,38,24.30
2014,09,20,15,39,24.30
2014,09,20,15,40,24.30
2014,09,20,15,41,24.40
2014,09,20,15,42,24.40
2014,09,20,15,43,24.30
2014,09,20,15,44,24.30
2014,09,20,15,45,24.20
2014,09,20,15,46,24.20
2014,09,20,15,47,24.10
2014,09,20,15,48,24.10
2014,09,20,15,49,24.10
2014,09,20,15,50,24.10
2014,09,20,15,51,24.10
2014,09,20,15,52,24.10
2014,09,20,15,53,24.10
2014,09,20,15,54,24.00
2014,09,20,15,55,24.00
2014,09,20,15,56,24.00
2014,09,20,15,57,24.10
2014,09,20,15,58,24.10
2014,09,20,15,59,24.10
2014,09,20,16,00,24.10
2014,09,20,16,01,24.10
2014,09,20,16,02,24.10
2014,09,20,16,03,24.10
2014,09,20,16,04,24.10
2014,09,20,16,05,24.10
2014,09,20,16,06,24.10
2014,09,20,16,07,24.10
2014,09,20,16,08,24.10
2014,09,20,16,09,24.10
2014,09,20,16,10,24.10
2014,09,20,16,11,24.10
2014,09,20,16,12,24.10
2014,09,20,16,13,24.20
2014,09,20,16,14,24.20
2014,09,20,16,15,24.10
2014,09,20,16,16,24.10
2014,09,20,16,17,24.10
2014,09,20,16,18,24.10
2014,09,20,16,19,24.10
2014,09,20,16,20,24.10
2014,09,20,16,21,24.10
2014,09,20,16,22,24.10
2014,09,20,16,23,24.10
2014,09,20,16,24,24.10
2014,09,20,16,25,24.20
2014,09,20,16,26,24.20
2014,09,20,16,27,24.10
2014,09,20,16,28,24.10
2014,09,20,16,29,24.20
2014,09,20,16,30,24.20
2014,09,20,16,31,24.20
2014,09,20,16,32,24.20
2014,09,20,16,33,24.20
2014,09,20,16,34,24.20
2014,09,20,16,35,24.20
2014,09,20,16,36,24.10
2014,09,20,16,37,24.10
2014,09,20,16,38,24.10
2014,09,20,16,39,24.10
2014,09,20,16,40,24.10
2014,09,20,16,41,24.10
2014,09,20,16,42,24.10
2014,09,20,16,43,24.20
2014,09,20,16,44,24.20
2014,09,20,16,45,24.20
2014,09,20,16,46,24.20
2014,09,20,16,47,24.20
2014,09,20,16,48,24.20
2014,09,20,16,49,24.10
2014,09,20,16,50,24.10
2014,09,20,16,51,24.10
2014,09,20,16,52,24.10
2014,09,20,16,53,24.10
2014,09,20,16,54,24.10
2014,09,20,16,55,24.10
2014,09,20,16,56,24.10
2014,09,20,16,57,24.10
2014,09,20,16,58,24.10
2014,09,20,16,59,24.10
2014,09,20,17,00,24.10
2014,09,20,17,01,24.10
2014,09,20,17,02,24.10
2014,09,20,17,03,24.20
2014,09,20,17,04,24.20
2014,09,20,17,05,24.20
2014,09,20,17,06,24.20
2014,09,20,17,07,24.20
2014,09,20,17,08,24.20
2014,09,20,17,09,24.20
2014,09,20,17,10,24.20
2014,09,20,17,11,24.20
2014,09,20,17,12,24.20
2014,09,20,17,13,24.20
2014,09,20,17,14,24.20
2014,09,20,17,15,24.10
2014,09,20,17,16,24.10
2014,09,20,17,17,24.00
2014,09,20,17,18,24.00
2014,09,20,17,19,23.90
2014,09,20,17,20,23.90
2014,09,20,17,21,23.80
2014,09,20,17,22,23.80
2014,09,20,17,23,23.70
2014,09,20,17,24,23.70
2014,09,20,17,25,23.70
2014,09,20,17,26,23.60
2014,09,20,17,27,23.50
2014,09,20,17,28,23.50